Regional Weather Roundup
Issued by NWS Bismarck, ND

Home | Current Version | Previous Version | Text Only | Print | Product List | Glossary On
Versions: 1 2 3 4 5 6 7 8 9 10 11 12 13 14 15 16 17 18 19 20 21 22 23 24 25 26 27 28 29 30 31 32 33 34 35 36 37 38 39 40 41 42 43 44 45 46 47 48 49 50
000
ASUS43 KBIS 251810
RWRBIS

NWR BROADCAST TEXT
NATIONAL WEATHER SERVICE BISMARCK ND
100 PM CDT SAT APR 25 2015

NOTE: "FAIR" INDICATES FEW OR NO CLOUDS BELOW 12,000 FEET WITH NO
SIGNIFICANT WEATHER AND/OR OBSTRUCTIONS TO VISIBILITY.


CITY           SKY/WX    TMP DP  RH WIND       PRES   REMARKS
WILLISTON      CLOUDY    50  42  74 E17       29.74S
MINOT          CLOUDY    51  39  63 E16G24    29.80F
MINOT AFB      CLOUDY    51  44  77 SE13      29.80F
BISMARCK       CLOUDY    48  42  80 SE16      29.81S
DICKINSON      CLOUDY    45  43  93 SE15      29.73S FOG
GARRISON         N/A     51  42  71 SE21      29.79S
HETTINGER ARPT CLOUDY    44  42  93 SE13      29.75S FOG
JAMESTOWN      CLOUDY    46  39  76 E13       29.85S
BEACH          CLOUDY    48  46  93 SE18G29   29.71R
CARRINGTON     CLOUDY    46  43  87 SE16      29.86S
CROSBY         CLOUDY    48  45  87 SE17G23   29.78R
HARVEY           N/A    N/A N/A N/A MISG        N/A
HAZEN          CLOUDY    50  41  71 E16       29.79F
LINTON         CLOUDY    48  45  87 SE14      29.80S
MANDAN         CLOUDY    48  41  76 E15       29.81R
OAKES            N/A     45  45 100 E17       29.85S
STANLEY        CLOUDY    45  45 100 SE20G25   29.80S
WATFORD CITY   CLOUDY    48  41  76 SE18      29.73S
$$

CITY           SKY/WX    TMP DP  RH WIND       PRES   REMARKS
GRAND FORKS    MOSUNNY   56  37  49 SE12G18   29.90F
GRAND FORKS AF CLOUDY    55  37  51 E9G18     29.89F
DEVILS LAKE    CLOUDY    50  37  62 SE16      29.86F
FARGO          CLOUDY    49  37  63 SE8       29.90S
CANDO          CLOUDY    54  37  54 E15G24    29.86F
CAVALIER       FAIR      57  37  47 SE12G20   29.90F
GRAFTON        MOCLDY    57  37  47 E14       29.91F
GWINNER        CLOUDY    45  45 100 E13       29.88R
LANGDON        CLOUDY    55  37  50 E21G26    29.88F
ROLLA          FAIR      52  37  58 SE16G23   29.87F
WALHALLA       FAIR      55  37  50 SE16      29.90F
$$

CITY           SKY/WX    TMP DP  RH WIND       PRES   REMARKS
ABERDEEN       CLOUDY    47  41  80 E13       29.83R
MOBRIDGE       CLOUDY    50  43  77 E13       29.76F
BUFFALO          N/A     47  43  86 SE12      29.66S
RAPID CITY     CLOUDY    49  46  90 SE15      29.72R FOG
GLASGOW        LGT RAIN  43  40  89 NW15      29.70R FOG
SIDNEY         CLOUDY    57  43  58 SE14      29.72R
WOLF POINT     PTSUNNY   61  42  49 SW8       29.66S
GLENDIVE       PTSUNNY   63  45  51 E9        29.67F
MILES CITY     CLOUDY    52  41  66 NW20G28   29.68R
BAKER          CLOUDY    49  43  80 SE20      29.70R
$$

CITY           SKY/WX    TMP DP  RH WIND       PRES   REMARKS
BILLINGS       LGT RAIN  42  36  79 NE7       29.80S
GREAT FALLS    CLOUDY    46  28  49 CALM      29.80S
REGINA         LGT RAIN  46  45  93 SE18      29.77S FOG
ESTEVAN        CLOUDY    45  39  81 SE18G26   29.79S
$$



USA.gov is the U.S. government's official web portal to all federal, state and local government web resources and services.